Youngstown, OH

3:02 AM EDT on September 22, 2017 (GMT -0400)
Youngstown-Warren Regional

Weather History for KYNG - January, 2012

Change the Weather History Date:

Sunday, January 1, 2012

  Actual Average Record
Temperature  
Mean Temperature 40 °F 26 °F  
Max Temperature 51 °F 33 °F 65 °F (1985)
Min Temperature 29 °F 20 °F -1 °F (1968)
Degree Days  
Heating Degree Days 25 39  
Month to date heating degree days 25 39  
Since 1 July heating degree days 2030 2445  
Cooling Degree Days 0 0  
Month to date cooling degree days 0 0  
Year to date cooling degree days 0 0  
Moisture  
Dew Point 31 °F    
Average Humidity 78    
Maximum Humidity 85    
Minimum Humidity 71    
Precipitation  
Precipitation 0.09 in 0.09 in 0.71 in (1964)
Month to date precipitation 0.09 0.09  
Year to date precipitation 0.09 0.09  
Snow  
Snow 0.90 in 0.50 in - ()
Month to date snowfall 0.9 0.5  
Since 1 July snowfall 11.0 19.9  
Snow Depth 0.00 in    
Sea Level Pressure  
Sea Level Pressure 29.82 in    
Wind  
Wind Speed 14 mph (SW)    
Max Wind Speed 33 mph    
Max Gust Speed 45 mph    
Visibility 7 miles    
Events Rain , Snow    
T = Trace of Precipitation, MM = Missing Value Source: NWS Daily Summary

Daily Weather History Graph

Daily Weather History Graph

Search for Another Location

Airport or City:

Trip Planner

Search our weather history database for the weather conditions in past years. The results will help you decide how hot, cold, wet, or windy it might be!

Date:

Astronomy

Jan. 01, 2012 Rise Set
Actual Time 7:48 AM EST 5:03 PM EST
Civil Twilight 7:17 AM EST 5:35 PM EST
Nautical Twilight 6:42 AM EST 6:09 PM EST
Astronomical Twilight 6:09 AM EST 6:43 PM EST
Moon 11:54 AM EST (1/1) 12:39 AM EST (1/1)
Length of Visible Light 10h 17m
Length of Day
9h 15m
First Quarter, 54% of the Moon is Illuminated
Jan 1
First Quarter
Jan 9
Full
Jan 16
Last Quarter
Jan 23
New
Jan 30
First Quarter

Hourly Weather History & Observations

Time (EST) Temp. Windchill Dew Point Humidity Pressure Visibility Wind Dir Wind Speed Gust Speed Precip Events Conditions
12:51 AM 39.2 °F 32.0 °F 33.8 °F 81% 30.02 in 10.0 mi South 11.5 mph 17.3 mph N/A   Overcast
1:51 AM 39.2 °F 35.0 °F 33.8 °F 81% 30.00 in 10.0 mi South 5.8 mph - N/A   Overcast
2:51 AM 37.0 °F 31.6 °F 33.1 °F 86% 30.01 in 10.0 mi SE 6.9 mph - N/A   Partly Cloudy
3:51 AM 37.0 °F 30.4 °F 33.1 °F 86% 29.98 in 10.0 mi SE 9.2 mph - N/A   Clear
4:51 AM 37.0 °F 29.8 °F 33.1 °F 86% 29.93 in 10.0 mi SE 10.4 mph - N/A   Clear
5:51 AM 37.0 °F 29.3 °F 34.0 °F 89% 29.90 in 10.0 mi SE 11.5 mph - N/A   Clear
6:51 AM 37.0 °F 30.4 °F 34.0 °F 89% 29.86 in 10.0 mi SE 9.2 mph - N/A   Partly Cloudy
7:51 AM 39.0 °F 32.8 °F 34.0 °F 82% 29.82 in 10.0 mi SE 9.2 mph - N/A   Mostly Cloudy
8:51 AM 39.9 °F 32.5 °F 35.1 °F 83% 29.78 in 6.0 mi South 12.7 mph - 0.00 in Rain Light Rain
9:51 AM 42.8 °F 36.2 °F 35.6 °F 76% 29.72 in 10.0 mi SSE 12.7 mph 21.9 mph N/A Rain Light Rain
10:51 AM 42.1 °F 36.6 °F 37.0 °F 82% 29.71 in 10.0 mi South 9.2 mph - 0.01 in   Overcast
11:51 AM 46.0 °F 41.0 °F 37.9 °F 73% 29.65 in 10.0 mi South 10.4 mph 17.3 mph N/A   Overcast
12:25 PM 46.4 °F 40.7 °F 39.2 °F 76% 29.61 in 6.0 mi SSW 12.7 mph 18.4 mph 0.00 in Rain Light Rain
12:51 PM 46.9 °F - 39.9 °F 77% 29.61 in 10.0 mi SSW 11.5 mph 19.6 mph 0.00 in   Overcast
1:51 PM 50.0 °F - 42.8 °F 76% 29.56 in 10.0 mi SSW 17.3 mph 26.5 mph N/A   Mostly Cloudy
2:51 PM 46.9 °F - 39.9 °F 77% 29.60 in 6.0 mi WSW 21.9 mph 32.2 mph 0.02 in   Mostly Cloudy
3:51 PM 44.1 °F 34.0 °F 35.1 °F 71% 29.68 in 10.0 mi West 29.9 mph 40.3 mph 0.00 in Rain Light Rain
4:51 PM 41.0 °F 31.1 °F 33.1 °F 73% 29.73 in 9.0 mi WSW 23.0 mph 39.1 mph 0.00 in Rain Light Rain
5:41 PM 39.2 °F 29.3 °F 28.4 °F 65% 29.77 in 10.0 mi West 20.7 mph 28.8 mph 0.00 in   Overcast
5:51 PM 37.9 °F 28.9 °F 30.0 °F 73% 29.80 in 10.0 mi WSW 16.1 mph 27.6 mph 0.00 in   Overcast
6:51 PM 37.0 °F 28.9 °F 30.0 °F 76% 29.83 in 10.0 mi WSW 12.7 mph - 0.00 in   Overcast
7:18 PM 35.6 °F 25.9 °F 28.4 °F 75% 29.82 in 9.0 mi WSW 16.1 mph 31.1 mph 0.00 in   Mostly Cloudy
7:51 PM 35.1 °F 26.4 °F 28.9 °F 78% 29.84 in 10.0 mi WSW 12.7 mph - 0.00 in Snow Light Snow
8:09 PM 35.6 °F 24.2 °F 30.2 °F 81% 29.82 in 1.2 mi WSW 21.9 mph 26.5 mph 0.00 in Snow Light Snow
8:24 PM 33.8 °F 20.8 °F 28.4 °F 81% 29.82 in 2.5 mi WSW 26.5 mph 39.1 mph 0.00 in Snow Light Snow
8:32 PM 33.8 °F 21.3 °F 28.4 °F 81% 29.83 in 1.2 mi WSW 24.2 mph 44.9 mph 0.00 in Snow Light Snow
8:38 PM 32.0 °F 18.4 °F 28.4 °F 87% 29.84 in 0.5 mi WSW 26.5 mph 38.0 mph 0.00 in Snow Snow
8:40 PM 32.0 °F 18.9 °F 28.4 °F 87% 29.84 in 0.2 mi West 24.2 mph 38.0 mph 0.00 in Snow Heavy Snow
8:51 PM 32.0 °F 18.6 °F 28.9 °F 88% 29.88 in 2.0 mi West 25.3 mph 32.2 mph 0.01 in Snow Light Snow
8:53 PM 32.0 °F 20.5 °F 28.4 °F 87% 29.84 in 0.1 mi WNW 18.4 mph 32.2 mph 0.00 in Snow Heavy Snow
9:03 PM 30.2 °F 16.8 °F 26.6 °F 86% 29.85 in 0.8 mi West 23.0 mph 38.0 mph 0.00 in Snow Light Snow
9:17 PM 28.4 °F 16.6 °F 26.6 °F 93% 29.85 in 4.0 mi West 16.1 mph 28.8 mph 0.02 in Snow Light Snow
9:30 PM 30.2 °F 17.4 °F 26.6 °F 86% 29.85 in 9.0 mi West 20.7 mph 25.3 mph 0.02 in Snow Light Snow
9:51 PM 30.9 °F 20.2 °F 25.0 °F 79% 29.87 in 9.0 mi West 15.0 mph 26.5 mph N/A Snow Light Snow
10:05 PM 30.2 °F 18.5 °F 24.8 °F 80% 29.85 in 9.0 mi West 17.3 mph 23.0 mph 0.00 in Snow Light Snow
10:33 PM 30.2 °F 19.3 °F 24.8 °F 80% 29.85 in 8.0 mi WSW 15.0 mph 23.0 mph 0.00 in Snow Light Snow
10:51 PM 30.9 °F 17.5 °F 21.0 °F 67% 29.88 in 9.0 mi West 24.2 mph 36.8 mph 0.00 in Snow Light Snow
11:10 PM 30.2 °F 20.2 °F 21.2 °F 69% 29.85 in 9.0 mi West 12.7 mph 34.5 mph 0.00 in Snow Light Snow
11:51 PM 30.2 °F 19.3 °F 19.4 °F 64% 29.85 in 9.0 mi West 15.0 mph 26.5 mph N/A Snow Light Snow